TimeCST,TemperatureF,Dew PointF,Humidity,Sea Level PressureIn,VisibilityMPH,Wind Direction,Wind SpeedMPH,Gust SpeedMPH,PrecipitationIn,Events,Conditions,WindDirDegrees,DateUTC
12:54 AM,34.0,19.0,54,30.11,10.0,ESE,5.8,-,N/A,,Clear,110,2013-02-18 06:54:00
1:54 AM,35.1,19.9,54,30.08,10.0,SE,6.9,-,N/A,,Clear,130,2013-02-18 07:54:00
2:54 AM,35.1,19.9,54,30.06,10.0,SE,8.1,-,N/A,,Clear,140,2013-02-18 08:54:00
3:54 AM,34.0,21.0,59,30.05,10.0,SE,5.8,-,N/A,,Clear,140,2013-02-18 09:54:00
4:54 AM,35.1,21.0,57,30.06,10.0,SE,3.5,-,N/A,,Clear,140,2013-02-18 10:54:00
5:54 AM,35.1,21.9,59,30.05,10.0,SE,4.6,-,N/A,,Clear,140,2013-02-18 11:54:00
6:54 AM,36.0,23.0,59,30.04,10.0,SSE,6.9,-,N/A,,Clear,150,2013-02-18 12:54:00
7:54 AM,39.9,26.1,58,30.04,10.0,SSE,9.2,-,N/A,,Clear,160,2013-02-18 13:54:00
8:54 AM,48.0,33.1,56,30.02,10.0,South,10.4,-,N/A,,Clear,170,2013-02-18 14:54:00
9:54 AM,51.1,36.0,56,30.00,10.0,South,15.0,-,N/A,,Clear,170,2013-02-18 15:54:00
10:54 AM,55.9,39.0,53,29.98,10.0,SSW,23.0,32.2,N/A,,Clear,210,2013-02-18 16:54:00
11:54 AM,57.9,35.1,42,29.95,10.0,South,15.0,25.3,N/A,,Clear,190,2013-02-18 17:54:00
12:54 PM,60.1,32.0,35,29.91,10.0,SSW,21.9,32.2,N/A,,Mostly Cloudy,200,2013-02-18 18:54:00
1:54 PM,62.1,32.0,32,29.86,10.0,South,17.3,28.8,N/A,,Mostly Cloudy,180,2013-02-18 19:54:00
2:54 PM,59.0,30.9,35,29.85,10.0,SSW,15.0,24.2,N/A,,Overcast,210,2013-02-18 20:54:00
3:54 PM,57.0,36.0,45,29.82,10.0,South,21.9,33.4,0.00,,Overcast,180,2013-02-18 21:54:00
4:54 PM,52.0,41.0,66,29.82,9.0,South,26.5,41.4,0.00,Rain,Rain,190,2013-02-18 22:54:00
5:54 PM,48.9,43.0,80,29.81,7.0,South,15.0,21.9,0.07,Rain,Rain,190,2013-02-18 23:54:00
6:54 PM,48.9,44.1,83,29.76,10.0,SSE,9.2,-,0.16,Rain,Light Rain,160,2013-02-19 00:54:00
7:54 PM,48.9,44.1,83,29.72,10.0,South,16.1,24.2,0.10,Rain,Light Rain,170,2013-02-19 01:54:00
8:54 PM,48.9,44.1,83,29.72,10.0,South,20.7,33.4,0.08,Rain,Light Rain,180,2013-02-19 02:54:00
9:04 PM,48.2,44.6,87,29.73,10.0,South,21.9,35.7,0.00,Rain,Light Rain,190,2013-02-19 03:04:00
9:50 PM,50.0,44.6,82,29.70,10.0,South,21.9,33.4,0.03,Rain,Light Rain,190,2013-02-19 03:50:00
9:54 PM,50.0,44.1,80,29.70,10.0,South,20.7,33.4,0.03,Rain,Light Rain,190,2013-02-19 03:54:00
10:54 PM,48.0,44.1,86,29.73,7.0,SSW,11.5,20.7,0.04,Rain,Rain,200,2013-02-19 04:54:00
11:09 PM,48.2,44.6,87,29.73,6.0,WSW,10.4,-,0.02,Rain,Rain,240,2013-02-19 05:09:00
11:20 PM,48.2,44.6,87,29.76,5.0,West,16.1,20.7,0.04,Rain,Rain,280,2013-02-19 05:20:00
11:31 PM,44.6,39.2,81,29.78,6.0,WNW,20.7,29.9,N/A,Rain,Light Rain,290,2013-02-19 05:31:00
11:51 PM,42.8,37.4,81,29.80,10.0,West,23.0,29.9,0.11,Rain,Light Rain,280,2013-02-19 05:51:00
11:54 PM,43.0,37.9,82,29.80,10.0,WNW,16.1,29.9,0.11,Rain,Light Rain,290,2013-02-19 05:54:00